Tenerife > ESTACION METEOROLÓGICA La Montañeta - Garachico

DATOS ACTUALES Online

Ultima actulizacion 50 minutos

12.3 ºC

Temperatura

94

Humedad (%)

914.66

Presión (mb)

0.6

Precipitación (mm)

26.6 NO

Viento (Km/h)

DATOS DIARIOS

Temperatura últimas 24 horas (ºC)

Humedad últimas 24 horas (%)

Presión atmosférica últimas 24 horas (mb)

Precipitaciones últimas 23 horas (mm)

Viento últimas 24 horas (Km/h)

Hora Temperatura (°C) ºC Precipitación (mm) mm Presión (mb) mb Humedad (%) % Viento (Km/h) km/h
28 - 09:00 12.6 0.4 914 90 25.8 NO
28 - 10:00 14 0.4 915 85 26.8 NO
28 - 11:00 14.3 0.4 914 90 19.9 NO
28 - 12:00 13.9 0.4 915 92 18.2 NO
28 - 13:00 12.5 0.8 915 94 26.7 NO
28 - 14:00 12.8 0.8 915 92 31.4 NO
28 - 15:00 13.3 1 915 92 30.1 NO
28 - 16:00 13.6 1 915 88 22.3 NO
28 - 17:00 13.5 1.1 915 92 28 NO
28 - 18:00 13.2 1.4 914 93 23.1 NO
28 - 19:00 12.6 1.6 915 94 30 NO
28 - 20:00 12.8 1.7 915 94 23.6 NO
28 - 21:00 12.8 1.8 915 94 26.4 NO
28 - 22:00 12.7 2.1 915 94 32.8 NO
28 - 23:00 12.3 2.3 916 93 28.4 O
29 - 00:00 12.6 2.4 915 93 18.2 NO
29 - 01:00 12.6 0 915 94 27.6 NO
29 - 02:00 12.4 0.1 915 93 17.1 NO
29 - 03:00 11.9 0.2 914 94 24.3 NO
29 - 04:00 11.9 0.2 914 92 22.4 NO
29 - 05:00 11.7 0.4 914 94 21.6 NO
29 - 06:00 11.9 0.4 914 93 23.2 O
29 - 07:00 12.1 0.4 914 93 26.1 NO
29 - 08:00 12.3 0.6 915 94 26.6 NO
29 - 09:00
Apalmet utiliza cookies propias y de terceros para mejorar la usabilidad y la experiencia web. Política de cookies.